カタリナ彗星

367P/Catalina (2011)

English version
Home page
Updated on May 21, 2018

---------------------------------------------------------------------

・ プロフィール

符号 367P/2011 CR42
発見日 2011年2月10日
発見光度 17.6等
発見者 A. Boattini (Catalina Sky Survey)

・ 写真集

・ 軌道要素

Epoch 2011 Nov. 15.0 TT = JDT 2455880.5
T 2011 Nov. 29.92719 TT                                 MPCW
q   2.5283688            (2000.0)            P               Q
n   0.14978971     Peri.  173.50334     -0.61123809     +0.78139218
a   3.5114089      Node    58.74136     -0.73259855     -0.49847769
e   0.2799560      Incl.    8.45949     -0.29947849     -0.37542808
P   6.58
From 121 observations 2011 Feb. 10-2018 Apr. 18, mean residual 0".6.

・ 光度変化

        H = 15.0  G = 0.15

---------------------------------------------------------------------

軌道要素はM.P.E.C. 2018-H30に掲載されたものです。
光度グラフはComet for Windowsで作成したものです。

---------------------------------------------------------------------

Copyright(C) Seiichi Yoshida (comet@aerith.net). All rights reserved.